Weather History for Wichita, KS

Change the Weather History Date:

Friday, November 16, 2012

  Actual Average Record
Temperature  
Mean Temperature 46 °F 45 °F  
Max Temperature 62 °F 56 °F 77 °F (1952)
Min Temperature 30 °F 34 °F 10 °F (1955)
Degree Days  
Heating Degree Days 19 20  
Month to date heating degree days 213 259  
Since 1 July heating degree days 473 545  
Cooling Degree Days 0 0  
Month to date cooling degree days 11 0  
Year to date cooling degree days 2312 1684  
Moisture  
Dew Point 32 °F    
Average Humidity 61    
Maximum Humidity 92    
Minimum Humidity 30    
Precipitation  
Precipitation 0.00 in 0.04 in 2.91 in (1928)
Month to date precipitation 0.55 0.86  
Year to date precipitation 24.67 30.87  
Snow  
Snow 0.00 in 0.00 in 0.50 in (1937)
Month to date snowfall T 0.3  
Since 1 July snowfall T 0.4  
Since 1 September snowfall T 0.4  
Snow Depth 0.00 in    
Sea Level Pressure  
Sea Level Pressure 30.38 in    
Wind  
Wind Speed 5 mph (SSE)    
Max Wind Speed 14 mph    
Max Gust Speed 18 mph    
Visibility 10 miles    
Events      
T = Trace of Precipitation, MM = Missing Value Source: NWS Daily Summary

Daily Weather History Graph

Daily Weather History Graph

Search for Another Location

Airport:

Trip Planner

Search our weather history database for the weather conditions in past years. The results will help you decide how hot, cold, wet, or windy it might be!

Date:

Astronomy

Nov. 16, 2012 Rise Set
Actual Time 7:11 AM CST 5:17 PM CST
Civil Twilight 6:43 AM CST 5:45 PM CST
Nautical Twilight 6:11 AM CST 6:17 PM CST
Astronomical Twilight 5:40 AM CST 6:48 PM CST
Moon 10:05 AM CST (11/16) 8:19 PM CST (11/16)
Length of Visible Light 11h 02m
Length of Day
10h 06m
Waxing Crescent, 12% of the Moon is Illuminated
Nov 16
Waxing Crescent
Nov 20
First Quarter
Nov 28
Full
Dec 6
Last Quarter
Dec 13
New

Hourly Weather History & Observations

Time (CST) Temp. Windchill Dew Point Humidity Pressure Visibility Wind Dir Wind Speed Gust Speed Precip Events Conditions
12:53 AM 36.0 °F - 30.9 °F 82% 30.40 in 9.0 mi Calm Calm - N/A   Clear
1:53 AM 36.0 °F - 30.9 °F 82% 30.40 in 8.0 mi Calm Calm - N/A   Clear
2:53 AM 36.0 °F - 32.0 °F 86% 30.42 in 9.0 mi Calm Calm - N/A   Clear
3:53 AM 34.0 °F 31.0 °F 30.0 °F 85% 30.41 in 8.0 mi NNW 3.5 mph - N/A   Clear
4:53 AM 35.1 °F 32.2 °F 30.9 °F 85% 30.40 in 8.0 mi North 3.5 mph - N/A   Clear
5:53 AM 32.0 °F - 30.0 °F 92% 30.42 in 8.0 mi Calm Calm - N/A   Clear
6:53 AM 32.0 °F - 28.9 °F 88% 30.43 in 8.0 mi Calm Calm - N/A   Clear
7:53 AM 35.1 °F - 30.9 °F 85% 30.44 in 10.0 mi Calm Calm - N/A   Clear
8:53 AM 42.1 °F - 35.1 °F 76% 30.44 in 10.0 mi Calm Calm - N/A   Clear
9:53 AM 48.0 °F - 35.1 °F 61% 30.44 in 10.0 mi ESE 5.8 mph - N/A   Clear
10:53 AM 54.0 °F - 35.1 °F 49% 30.43 in 10.0 mi SE 5.8 mph - N/A   Clear
11:53 AM 59.0 °F - 34.0 °F 39% 30.41 in 10.0 mi SE 5.8 mph - N/A   Clear
12:53 PM 61.0 °F - 32.0 °F 34% 30.38 in 10.0 mi South 6.9 mph - N/A   Clear
1:53 PM 62.1 °F - 30.9 °F 31% 30.36 in 10.0 mi SE 10.4 mph - N/A   Clear
2:53 PM 61.0 °F - 30.9 °F 32% 30.35 in 10.0 mi South 9.2 mph - N/A   Clear
3:53 PM 60.1 °F - 30.9 °F 33% 30.35 in 10.0 mi SSE 10.4 mph - N/A   Clear
4:53 PM 55.9 °F - 33.1 °F 42% 30.35 in 10.0 mi South 6.9 mph - N/A   Partly Cloudy
5:53 PM 52.0 °F - 33.1 °F 49% 30.35 in 10.0 mi SSE 5.8 mph - N/A   Partly Cloudy
6:53 PM 46.9 °F - 32.0 °F 56% 30.35 in 10.0 mi SSE 5.8 mph - N/A   Clear
7:53 PM 44.1 °F 39.5 °F 32.0 °F 63% 30.35 in 10.0 mi SSE 8.1 mph - N/A   Clear
8:53 PM 46.9 °F - 32.0 °F 56% 30.34 in 10.0 mi SE 9.2 mph - N/A   Clear
9:53 PM 46.0 °F 41.0 °F 32.0 °F 58% 30.34 in 10.0 mi SSE 10.4 mph - N/A   Clear
10:53 PM 43.0 °F 38.2 °F 32.0 °F 65% 30.33 in 10.0 mi SSE 8.1 mph - N/A   Clear
11:53 PM 43.0 °F 37.2 °F 32.0 °F 65% 30.34 in 10.0 mi SSE 10.4 mph - N/A   Clear